Tracking 21094 objects as of 11-Aug-2020
HD Live streaming from Space Station
objects crossing your sky now
Track the most recent launched group of Starlink satellites

SOLRAD 7B

Track SOLRAD 7B now!
10-day predictions
SOLRAD 7B is classified as:


NORAD ID: 1291
Int'l Code: 1965-016D
Perigee: 905.5 km
Apogee: 933.9 km
Inclination: 70.1 °
Period: 103.3 minutes
Semi major axis: 7290 km
RCS: 0.5012 m2 (medium)
Launch date: March 9, 1965
Source: United States (US)
Launch site: AIR FORCE WESTERN TEST RANGE (AFWTR)
aabbcc
Your satellite tracking list
Your tracking list is empty




NASA's NSSDC Master Catalog

Two Line Element Set (TLE):
1  1291U 65016D   20224.03551786 -.00000047 +00000-0 +35832-5 0  9994
2  1291 070.0792 096.0256 0019530 038.7152 321.5349 13.94597236818915
Source of the keplerian elements: AFSPC